Preview of NWS' New Version of Forecast
This preview is not operational and should not be used for support decisions.

Regional Weather Roundup (RWR)

Issued by National Weather Service (NWS)

                            
000
ASUS43 KBIS 161710
RWRND 

NORTH DAKOTA REGIONAL WEATHER ROUNDUP
NATIONAL WEATHER SERVICE BISMARCK ND
1200 PM CDT MON SEP 16 2019

NOTE: "FAIR" INDICATES FEW OR NO CLOUDS BELOW 12,000 FEET WITH NO
SIGNIFICANT WEATHER AND/OR OBSTRUCTIONS TO VISIBILITY.


NDZ001>003-009>011-017-161800-
NORTHWEST NORTH DAKOTA
  
CITY           SKY/WX    TMP DP  RH WIND       PRES   REMARKS
WILLISTON      SUNNY     79  60  52 CALM      29.70F                  
MINOT          SUNNY     75  63  66 E5        29.72F                  
MINOT AFB      SUNNY     74  63  69 E9        29.71F                  
$$
 
NDZ018>021-031>035-040>046-161800-
SOUTHWEST NORTH DAKOTA
  
CITY           SKY/WX    TMP DP  RH WIND       PRES   REMARKS
BISMARCK       SUNNY     75  64  68 SE6       29.75F                  
DICKINSON      SUNNY     84  61  45 E7        29.72F                  
GARRISON         N/A     74  63  68 VRB6      29.73S                  
HETTINGER ARPT SUNNY     78  55  44 SE5       29.77F                  
$$
 
NDZ004>008-012>016-024-026-027-054-161800-
NORTHEAST NORTH DAKOTA
  
CITY           SKY/WX    TMP DP  RH WIND       PRES   REMARKS
GRAND FORKS    MOSUNNY   79  65  62 S17       29.77F                  
GRND FRKS AFB  MOSUNNY   78  67  69 S12       29.78F                  
DEVILS LAKE    SUNNY     74  66  76 SE9       29.77S                  
$$
 
NDZ022-023-025-028>030-036>039-047>053-161800-
SOUTHEAST NORTH DAKOTA
  
CITY           SKY/WX    TMP DP  RH WIND       PRES   REMARKS
FARGO          MOSUNNY   79  68  69 SE13G22   29.81S                  
JAMESTOWN      SUNNY     79  68  69 S14       29.77F                  
$$